Weather History for KFRM - November, 2013

Change the Weather History Date:

Monday, November 18, 2013

  Actual Average Record
Temperature  
Mean Temperature 32 °F -  
Max Temperature 41 °F 41 °F 71 °F (1999)
Min Temperature 24 °F 24 °F 2 °F (1986)
Degree Days  
Heating Degree Days 32    
Moisture  
Dew Point 22 °F    
Average Humidity 66    
Maximum Humidity 86    
Minimum Humidity 49    
Precipitation  
Precipitation 0.00 in - - ()
Sea Level Pressure  
Sea Level Pressure 30.12 in    
Wind  
Wind Speed 15 mph (NW)    
Max Wind Speed 25 mph    
Max Gust Speed 30 mph    
Visibility 10 miles    
Events      
Averages and records for this station are not official NWS values.
T = Trace of Precipitation, MM = Missing Value Source: NWS Daily Summary

Daily Weather History Graph

Daily Weather History Graph

Search for Another Location

Airport or City:

Trip Planner

Search our weather history database for the weather conditions in past years. The results will help you decide how hot, cold, wet, or windy it might be!

Date:

Astronomy

Nov. 18, 2013 Rise Set
Actual Time 7:15 AM CST 4:49 PM CST
Civil Twilight 6:44 AM CST 5:20 PM CST
Nautical Twilight 6:09 AM CST 5:55 PM CST
Astronomical Twilight 5:35 AM CST 6:29 PM CST
Moon 5:51 PM CST (11/18) 8:05 AM CST (11/18)
Length of Visible Light 10h 36m
Length of Day
9h 33m
Full, 99% of the Moon is Illuminated
Nov 18
Full
Nov 25
Last Quarter
Dec 2
New
Dec 9
First Quarter
Dec 17
Full

Hourly Weather History & Observations

Time (CST) Temp. Windchill Dew Point Humidity Pressure Visibility Wind Dir Wind Speed Gust Speed Precip Events Conditions
12:15 AM 35.6 °F 25.5 °F 28.4 °F 75% 29.92 in 10.0 mi NW 17.3 mph - N/A   Overcast
12:35 AM 33.8 °F 22.5 °F 26.6 °F 75% 29.92 in 10.0 mi WNW 19.6 mph 25.3 mph N/A   Mostly Cloudy
12:55 AM 35.6 °F 25.9 °F 26.6 °F 70% 29.92 in 10.0 mi NW 16.1 mph - N/A   Mostly Cloudy
1:15 AM 35.6 °F 24.8 °F 26.6 °F 70% 29.92 in 10.0 mi NW 19.6 mph 23.0 mph N/A   Overcast
1:35 AM 35.6 °F 25.2 °F 26.6 °F 70% 29.94 in 10.0 mi NW 18.4 mph 24.2 mph N/A   Overcast
1:55 AM 35.6 °F 27.5 °F 26.6 °F 70% 29.94 in 10.0 mi NW 11.5 mph - N/A   Overcast
2:15 AM 35.6 °F 26.6 °F 26.6 °F 70% 29.94 in 10.0 mi NW 13.8 mph - N/A   Overcast
2:35 AM 35.6 °F 26.6 °F 26.6 °F 70% 29.95 in 10.0 mi NW 13.8 mph - N/A   Overcast
2:55 AM 33.8 °F 23.9 °F 26.6 °F 75% 29.97 in 10.0 mi NW 15.0 mph - N/A   Overcast
3:15 AM 33.8 °F 21.6 °F 24.8 °F 70% 29.97 in 10.0 mi WNW 23.0 mph 27.6 mph N/A   Overcast
3:35 AM 32.0 °F 20.8 °F 24.8 °F 75% 29.97 in 10.0 mi NW 17.3 mph 26.5 mph N/A   Mostly Cloudy
3:55 AM 30.2 °F 19.8 °F 24.8 °F 80% 29.99 in 10.0 mi WNW 13.8 mph 19.6 mph N/A   Partly Cloudy
4:15 AM 30.2 °F 19.3 °F 24.8 °F 80% 30.00 in 10.0 mi WNW 15.0 mph - N/A   Scattered Clouds
4:35 AM 30.2 °F 20.2 °F 24.8 °F 80% 30.00 in 10.0 mi WNW 12.7 mph - N/A   Mostly Cloudy
4:55 AM 32.0 °F 21.2 °F 24.8 °F 75% 30.01 in 10.0 mi WNW 16.1 mph 23.0 mph N/A   Overcast
5:15 AM 32.0 °F 22.1 °F 24.8 °F 75% 30.01 in 10.0 mi WNW 13.8 mph - N/A   Overcast
5:35 AM 32.0 °F 19.5 °F 24.8 °F 75% 30.03 in 10.0 mi WNW 21.9 mph - N/A   Overcast
5:55 AM 32.0 °F 20.5 °F 24.8 °F 75% 30.03 in 10.0 mi NW 18.4 mph 28.8 mph N/A   Overcast
6:15 AM 30.2 °F 18.9 °F 23.0 °F 75% 30.03 in 10.0 mi WNW 16.1 mph 23.0 mph N/A   Overcast
6:35 AM 30.2 °F 18.9 °F 23.0 °F 75% 30.04 in 10.0 mi WNW 16.1 mph 25.3 mph N/A   Scattered Clouds
6:55 AM 30.2 °F 18.9 °F 21.2 °F 69% 30.06 in 10.0 mi WNW 16.1 mph 21.9 mph N/A   Clear
7:15 AM 30.2 °F 18.1 °F 21.2 °F 69% 30.06 in 10.0 mi WNW 18.4 mph 21.9 mph N/A   Clear
7:35 AM 30.2 °F 18.9 °F 21.2 °F 69% 30.08 in 10.0 mi WNW 16.1 mph 23.0 mph N/A   Clear
7:55 AM 30.2 °F 17.4 °F 21.2 °F 69% 30.09 in 10.0 mi WNW 20.7 mph 25.3 mph N/A   Clear
8:15 AM 30.2 °F 17.8 °F 21.2 °F 69% 30.10 in 10.0 mi WNW 19.6 mph 24.2 mph N/A   Clear
8:35 AM 30.2 °F 18.1 °F 21.2 °F 69% 30.11 in 10.0 mi NW 18.4 mph 24.2 mph N/A   Clear
8:55 AM 32.0 °F 20.5 °F 21.2 °F 64% 30.12 in 10.0 mi NW 18.4 mph 24.2 mph N/A   Clear
9:15 AM 32.0 °F 20.5 °F 21.2 °F 64% 30.12 in 10.0 mi WNW 18.4 mph 27.6 mph N/A   Clear
9:35 AM 33.8 °F 21.0 °F 21.2 °F 60% 30.13 in 10.0 mi NW 25.3 mph 28.8 mph N/A   Clear
9:55 AM 33.8 °F 22.2 °F 21.2 °F 60% 30.15 in 10.0 mi NW 20.7 mph 29.9 mph N/A   Clear
10:15 AM 33.8 °F 21.3 °F 21.2 °F 60% 30.16 in 10.0 mi NW 24.2 mph 28.8 mph N/A   Clear
10:35 AM 35.6 °F 24.5 °F 21.2 °F 56% 30.17 in 10.0 mi WNW 20.7 mph - N/A   Clear
10:55 AM 35.6 °F 24.8 °F 21.2 °F 56% 30.18 in 10.0 mi NW 19.6 mph 24.2 mph N/A   Clear
11:15 AM 35.6 °F 25.9 °F 21.2 °F 56% 30.18 in 10.0 mi WNW 16.1 mph - N/A   Clear
11:35 AM 37.4 °F 26.9 °F 21.2 °F 52% 30.18 in 10.0 mi NW 20.7 mph - N/A   Clear
11:55 AM 37.4 °F 28.2 °F 21.2 °F 52% 30.18 in 10.0 mi NW 16.1 mph - N/A   Clear
12:15 PM 37.4 °F 26.9 °F 21.2 °F 52% 30.18 in 10.0 mi NW 20.7 mph - N/A   Clear
12:35 PM 37.4 °F 27.8 °F 21.2 °F 52% 30.18 in 10.0 mi WNW 17.3 mph - N/A   Clear
12:55 PM 39.2 °F 30.2 °F 21.2 °F 49% 30.17 in 10.0 mi NW 17.3 mph 21.9 mph N/A   Clear
1:15 PM 39.2 °F 30.5 °F 23.0 °F 52% 30.18 in 10.0 mi NW 16.1 mph 20.7 mph N/A   Clear
1:35 PM 39.2 °F 31.2 °F 23.0 °F 52% 30.18 in 10.0 mi NW 13.8 mph - N/A   Clear
1:55 PM 41.0 °F 33.9 °F 23.0 °F 49% 30.17 in 10.0 mi NW 12.7 mph 16.1 mph N/A   Clear
2:15 PM 41.0 °F 33.5 °F 23.0 °F 49% 30.18 in 10.0 mi NW 13.8 mph 18.4 mph N/A   Clear
2:35 PM 41.0 °F 33.5 °F 23.0 °F 49% 30.18 in 10.0 mi NW 13.8 mph 18.4 mph N/A   Clear
2:55 PM 41.0 °F 33.9 °F 23.0 °F 49% 30.18 in 10.0 mi NW 12.7 mph - N/A   Clear
3:15 PM 41.0 °F 34.3 °F 23.0 °F 49% 30.19 in 10.0 mi NW 11.5 mph - N/A   Clear
3:35 PM 41.0 °F 34.3 °F 23.0 °F 49% 30.18 in 10.0 mi NW 11.5 mph - N/A   Clear
3:55 PM 41.0 °F 34.7 °F 23.0 °F 49% 30.18 in 10.0 mi NW 10.4 mph - N/A   Clear
4:15 PM 39.2 °F 34.2 °F 21.2 °F 49% 30.19 in 10.0 mi NNW 6.9 mph - N/A   Clear
4:35 PM 39.2 °F 35.0 °F 21.2 °F 49% 30.19 in 10.0 mi NNW 5.8 mph - N/A   Clear
4:55 PM 35.6 °F - 21.2 °F 56% 30.19 in 10.0 mi North - - N/A   Clear
5:15 PM 35.6 °F 31.7 °F 21.2 °F 56% 30.19 in 10.0 mi North 4.6 mph - N/A   Clear
5:35 PM 35.6 °F 30.7 °F 21.2 °F 56% 30.20 in 10.0 mi NNE 5.8 mph - N/A   Clear
5:55 PM 33.8 °F 30.8 °F 21.2 °F 60% 30.20 in 10.0 mi NE 3.5 mph - N/A   Clear
6:15 PM 30.2 °F 25.4 °F 21.2 °F 69% 30.20 in 10.0 mi NE 4.6 mph - N/A   Clear
6:35 PM 30.2 °F - 21.2 °F 69% 30.21 in 10.0 mi Calm Calm - N/A   Clear
6:55 PM 30.2 °F 26.7 °F 21.2 °F 69% 30.21 in 10.0 mi ENE 3.5 mph - N/A   Clear
7:15 PM 30.2 °F - 23.0 °F 75% 30.21 in 10.0 mi Calm Calm - N/A   Clear
7:35 PM 28.4 °F 24.6 °F 19.4 °F 69% 30.22 in 10.0 mi SSE 3.5 mph - N/A   Clear
7:55 PM 28.4 °F 24.6 °F 21.2 °F 74% 30.23 in 10.0 mi South 3.5 mph - N/A   Clear
8:15 PM 26.6 °F 21.2 °F 19.4 °F 74% 30.23 in 10.0 mi SSE 4.6 mph - N/A   Clear
8:35 PM 24.8 °F - 19.4 °F 80% 30.23 in 10.0 mi Calm Calm - N/A   Clear
8:55 PM 26.6 °F - 19.4 °F 74% 30.23 in 10.0 mi Calm Calm - N/A   Clear
9:15 PM 26.6 °F 22.6 °F 19.4 °F 74% 30.23 in 10.0 mi ESE 3.5 mph - N/A   Clear
9:35 PM 24.8 °F 20.5 °F 21.2 °F 86% 30.23 in 10.0 mi SE 3.5 mph - N/A   Clear
9:55 PM 24.8 °F 20.5 °F 21.2 °F 86% 30.24 in 10.0 mi SSE 3.5 mph - N/A   Clear
10:15 PM 24.8 °F 20.5 °F 19.4 °F 80% 30.23 in 10.0 mi South 3.5 mph - N/A   Clear
10:35 PM 24.8 °F 19.1 °F 19.4 °F 80% 30.23 in 10.0 mi SSE 4.6 mph - N/A   Clear
10:55 PM 24.8 °F 19.1 °F 19.4 °F 80% 30.23 in 10.0 mi SSE 4.6 mph - N/A   Clear
11:15 PM 24.8 °F 19.1 °F 19.4 °F 80% 30.23 in 10.0 mi SE 4.6 mph - N/A   Clear
11:35 PM 24.8 °F 17.9 °F 19.4 °F 80% 30.23 in 10.0 mi SSE 5.8 mph - N/A   Clear
11:55 PM 24.8 °F 17.9 °F 19.4 °F 80% 30.23 in 10.0 mi SSE 5.8 mph - N/A   Clear